Starlink 5670

operational
NORAD ID: 55341 Int'l Des: 2023-013 Owner: SPXS Country: US Constellation: starlink
LEOCIRCULAR

关于 Starlink 5670

正在加载描述...

实时位置

正在加载3D地球...

即将过境

高度历史

Altitude vs Time

uPlot chart will show altitude changes over time

两行轨道根数

1 55341U 23013L 25258.16676542 .00000501 00000-0 52175-4 0 9996
2 55341 43.0030 174.2955 0001148 264.1057 95.9654 15.02533770145306
Epoch: Sep 15, 2025 • Age: 18 hours

当前状态

高度 558.9 km
速度 7.58 km/s
星下点 -0.51°S, 20.26°E
发射日期 Jan 26, 2023
运行时间 2.6 years
类型 internet

技术详情

分类 Payload
质量 305.00 kg
干质量 290.00 kg
总质量 305.00 kg
长度 0.20 m
直径 2.80 m
跨度 9.00 m
形状 Box + pan
制造商 SPXS
平台类型 Starlink
阶段状态 In Orbit
所有者/国家 SPXS/US

大型星座

Loading constellations...